• In Uzbekistan
  • List of Countries
  • For 7 days
  • Water Temperature
  • Satellite Maps
  • Weather Map
  • Weather Widgets
  • user-avatar
    Login

    Hourly Weather Maun

    Today, 21 September, Thursday

    Time Temperature Precipitation Wind Pressure Humidity
    00:00 +27°C° 0 mm 4 mps 683 mmHg 26%
    01:00 +27°C° 0 mm 4 mps 684 mmHg 30%
    02:00 +26°C° 0 mm 4 mps 684 mmHg 35%
    03:00 +25°C° 0 mm 4 mps 684 mmHg 37%
    04:00 +25°C° 0 mm 4 mps 684 mmHg 38%
    05:00 +23°C° 0 mm 4 mps 684 mmHg 40%
    06:00 +25°C° 0 mm 4 mps 684 mmHg 38%
    07:00 +26°C° 0 mm 5 mps 685 mmHg 37%
    08:00 +27°C° 0 mm 6 mps 685 mmHg 35%
    09:00 +30°C° 0 mm 5 mps 685 mmHg 31%
    10:00 +33°C° 0 mm 5 mps 686 mmHg 27%
    11:00 +35°C° 0 mm 5 mps 686 mmHg 23%
    12:00 +36°C° 0 mm 4 mps 685 mmHg 21%
    13:00 +37°C° 0 mm 4 mps 685 mmHg 19%
    14:00 +38°C° 0 mm 3 mps 684 mmHg 16%
    15:00 +38°C° 0 mm 3 mps 683 mmHg 17%
    16:00 +38°C° 0 mm 3 mps 683 mmHg 17%
    17:00 +37°C° 0 mm 3 mps 682 mmHg 17%
    18:00 +35°C° 0 mm 3 mps 682 mmHg 20%
    19:00 +33°C° 0 mm 3 mps 682 mmHg 23%
    20:00 +30°C° 0 mm 3 mps 682 mmHg 25%
    21:00 +29°C° 0 mm 3 mps 683 mmHg 26%
    22:00 +29°C° 0 mm 3 mps 683 mmHg 26%
    23:00 +28°C° 0 mm 3 mps 683 mmHg 26%

    Tomorrow, 22 September, Friday

    Time Temperature Precipitation Wind Pressure Humidity
    00:00 +27°C° 0 mm 4 mps 683 mmHg 26%
    01:00 +27°C° 0 mm 4 mps 683 mmHg 26%
    02:00 +26°C° 0 mm 4 mps 683 mmHg 26%
    03:00 +25°C° 0 mm 4 mps 683 mmHg 28%
    04:00 +23°C° 0 mm 4 mps 683 mmHg 29%
    05:00 +22°C° 0 mm 4 mps 682 mmHg 31%
    06:00 +23°C° 0 mm 4 mps 683 mmHg 30%
    07:00 +25°C° 0 mm 4 mps 683 mmHg 29%
    08:00 +26°C° 0 mm 5 mps 684 mmHg 28%
    09:00 +29°C° 0 mm 4 mps 684 mmHg 24%
    10:00 +33°C° 0 mm 4 mps 684 mmHg 21%
    11:00 +36°C° 0 mm 3 mps 685 mmHg 18%
    12:00 +37°C° 0 mm 3 mps 684 mmHg 16%
    13:00 +38°C° 0 mm 3 mps 683 mmHg 15%
    14:00 +40°C° 0 mm 3 mps 682 mmHg 13%
    15:00 +39°C° 0 mm 3 mps 682 mmHg 13%
    16:00 +39°C° 0 mm 3 mps 682 mmHg 12%
    17:00 +39°C° 0 mm 3 mps 681 mmHg 12%
    18:00 +36°C° 0 mm 3 mps 681 mmHg 14%
    19:00 +34°C° 0 mm 3 mps 681 mmHg 16%
    20:00 +30°C° 0 mm 3 mps 681 mmHg 19%
    21:00 +29°C° 0 mm 3 mps 682 mmHg 20%
    22:00 +28°C° 0 mm 3 mps 682 mmHg 21%
    23:00 +27°C° 0 mm 3 mps 683 mmHg 22%

    Day after tomorrow, 23 September, Saturday

    Time Temperature Precipitation Wind Pressure Humidity
    00:00 +27°C° 0 mm 2 mps 682 mmHg 23%
    01:00 +26°C° 0 mm 2 mps 682 mmHg 24%
    02:00 +25°C° 0 mm 2 mps 681 mmHg 25%
    03:00 +25°C° 0 mm 2 mps 681 mmHg 25%
    04:00 +24°C° 0 mm 2 mps 681 mmHg 26%
    05:00 +23°C° 0 mm 2 mps 681 mmHg 27%
    06:00 +25°C° 0 mm 2 mps 682 mmHg 25%
    07:00 +26°C° 0 mm 2 mps 682 mmHg 22%
    08:00 +28°C° 0 mm 3 mps 683 mmHg 20%
    09:00 +31°C° 0 mm 3 mps 683 mmHg 17%
    10:00 +35°C° 0 mm 3 mps 684 mmHg 15%
    11:00 +38°C° 0 mm 4 mps 684 mmHg 12%
    12:00 +39°C° 0 mm 3 mps 684 mmHg 11%
    13:00 +40°C° 0 mm 3 mps 683 mmHg 10%
    14:00 +42°C° 0 mm 3 mps 682 mmHg 9%
    15:00 +42°C° 0 mm 3 mps 682 mmHg 9%
    16:00 +42°C° 0 mm 3 mps 681 mmHg 9%
    17:00 +41°C° 0 mm 4 mps 681 mmHg 9%
    18:00 +38°C° 0 mm 4 mps 681 mmHg 10%
    19:00 +35°C° 0 mm 4 mps 681 mmHg 11%
    20:00 +32°C° 0 mm 4 mps 681 mmHg 12%
    21:00 +30°C° 0 mm 3 mps 682 mmHg 12%
    22:00 +29°C° 0 mm 3 mps 682 mmHg 13%
    23:00 +28°C° 0 mm 3 mps 682 mmHg 13%

    24 September, Sunday

    Time Temperature Precipitation Wind Pressure Humidity
    00:00 +28°C° 0 mm 4 mps 682 mmHg 13%
    01:00 +28°C° 0 mm 5 mps 682 mmHg 14%
    02:00 +28°C° 0 mm 6 mps 682 mmHg 15%
    03:00 +27°C° 0 mm 6 mps 682 mmHg 16%
    04:00 +27°C° 0 mm 5 mps 682 mmHg 18%
    05:00 +26°C° 0 mm 5 mps 682 mmHg 19%
    06:00 +26°C° 0 mm 6 mps 683 mmHg 21%
    07:00 +27°C° 0 mm 6 mps 684 mmHg 23%
    08:00 +27°C° 0 mm 7 mps 684 mmHg 24%
    09:00 +30°C° 0 mm 6 mps 685 mmHg 21%
    10:00 +33°C° 0 mm 6 mps 685 mmHg 18%
    11:00 +36°C° 0 mm 5 mps 685 mmHg 16%
    12:00 +37°C° 0 mm 5 mps 684 mmHg 13%
    13:00 +40°C° 0 mm 4 mps 684 mmHg 11%
    14:00 +40°C° 0 mm 3 mps 683 mmHg 9%
    15:00 +41°C° 0 mm 4 mps 682 mmHg 9%
    16:00 +40°C° 0 mm 4 mps 682 mmHg 9%
    17:00 +40°C° 0 mm 4 mps 681 mmHg 9%
    18:00 +36°C° 0 mm 4 mps 682 mmHg 12%
    19:00 +34°C° 0 mm 3 mps 682 mmHg 15%
    20:00 +30°C° 0 mm 3 mps 682 mmHg 17%
    21:00 +29°C° 0 mm 3 mps 682 mmHg 19%
    22:00 +28°C° 0 mm 3 mps 682 mmHg 21%
    23:00 +27°C° 0 mm 3 mps 682 mmHg 23%

    25 September, Monday

    Time Temperature Precipitation Wind Pressure Humidity
    00:00 +26°C° 0 mm 3 mps 681 mmHg 25%
    01:00 +25°C° 0 mm 3 mps 681 mmHg 28%
    02:00 +24°C° 0 mm 2 mps 681 mmHg 31%
    03:00 +23°C° 0 mm 2 mps 680 mmHg 33%
    04:00 +21°C° 0 mm 2 mps 680 mmHg 36%
    05:00 +21°C° 0 mm 2 mps 680 mmHg 38%
    06:00 +24°C° 0 mm 3 mps 680 mmHg 34%
    07:00 +25°C° 0 mm 4 mps 681 mmHg 29%
    08:00 +27°C° 0 mm 4 mps 682 mmHg 24%
    09:00 +30°C° 0 mm 5 mps 682 mmHg 20%
    10:00 +35°C° 0 mm 5 mps 682 mmHg 15%
    11:00 +39°C° 0 mm 5 mps 682 mmHg 11%
    12:00 +40°C° 0 mm 4 mps 682 mmHg 10%
    13:00 +41°C° 0 mm 4 mps 681 mmHg 9%
    14:00 +42°C° 0 mm 4 mps 680 mmHg 7%
    15:00 +40°C° 0 mm 3 mps 679 mmHg 7%
    16:00 +40°C° 0 mm 3 mps 679 mmHg 7%
    17:00 +40°C° 0 mm 3 mps 678 mmHg 7%
    18:00 +37°C° 0 mm 3 mps 678 mmHg 9%
    19:00 +34°C° 0 mm 2 mps 678 mmHg 11%
    20:00 +30°C° 0 mm 2 mps 678 mmHg 13%
    21:00 +29°C° 0 mm 3 mps 678 mmHg 14%
    22:00 +28°C° 0 mm 3 mps 678 mmHg 15%
    23:00 +27°C° 0 mm 3 mps 678 mmHg 17%

    26 September, Tuesday

    Time Temperature Precipitation Wind Pressure Humidity
    00:00 +27°C° 0 mm 4 mps 677 mmHg 18%
    01:00 +26°C° 0 mm 4 mps 677 mmHg 19%
    02:00 +26°C° 0 mm 4 mps 676 mmHg 20%
    03:00 +25°C° 0 mm 4 mps 676 mmHg 20%
    04:00 +25°C° 0 mm 4 mps 676 mmHg 21%
    05:00 +23°C° 0 mm 4 mps 676 mmHg 21%
    06:00 +25°C° 0 mm 4 mps 677 mmHg 21%
    07:00 +27°C° 0 mm 3 mps 678 mmHg 20%
    08:00 +28°C° 0 mm 3 mps 679 mmHg 20%
    09:00 +30°C° 0 mm 3 mps 679 mmHg 18%
    10:00 +34°C° 0 mm 4 mps 679 mmHg 15%
    11:00 +37°C° 0 mm 4 mps 679 mmHg 13%
    12:00 +38°C° 0 mm 4 mps 679 mmHg 11%
    13:00 +41°C° 0 mm 4 mps 678 mmHg 10%
    14:00 +42°C° 0 mm 4 mps 677 mmHg 8%
    15:00 +42°C° 0 mm 4 mps 677 mmHg 8%
    16:00 +42°C° 0 mm 3 mps 677 mmHg 8%
    17:00 +42°C° 0 mm 3 mps 676 mmHg 7%
    18:00 +38°C° 0 mm 2 mps 676 mmHg 9%
    19:00 +35°C° 0 mm 2 mps 676 mmHg 10%
    20:00 +32°C° 0 mm 1 mps 676 mmHg 12%
    21:00 +30°C° 0 mm 3 mps 677 mmHg 15%
    22:00 +29°C° 0 mm 4 mps 677 mmHg 19%
    23:00 +28°C° 0 mm 6 mps 678 mmHg 22%
    Show more